Regional Weather Roundup
Issued by NWS

Home | Current Version | Previous Version | Text Only | Print | Product List | Glossary On
Versions: 1 2 3 4 5 6 7 8 9 10 11 12 13 14 15 16 17 18 19 20 21 22 23 24 25 26 27 28 29 30 31 32 33 34 35 36 37 38 39 40 41 42 43 44 45 46 47 48 49 50
403
ASUS43 KDTX 221810
RWRMI
MICHIGAN HOURLY REGIONAL WEATHER ROUNDUP
NATIONAL WEATHER SERVICE DETROIT/PONTIAC MI
200 PM EDT FRI MAY 22 2015

NOTE: "FAIR" INDICATES FEW OR NO CLOUDS BELOW 12,000 FEET WITH NO
SIGNIFICANT WEATHER AND/OR OBSTRUCTION TO VISIBILITY.

MIZ047>049-052>055-059>063-066>070-074>076-081>083-221900-
SOUTHEAST LOWER MICHIGAN

CITY           SKY/WX    TMP DP  RH WIND       PRES   REMARKS
ADRIAN         SUNNY     66  28  24 N13G20    30.21R
6HR MIN TEMP:  52; 6HR MAX TEMP:  66;

ALMA           SUNNY     62  28  27 NW6       30.21S
ANN ARBOR      SUNNY     64  31  28 N14       30.20R
BAD AXE        SUNNY     55  29  37 NW13      30.21S
CARO           SUNNY     58  32  37 N8G16     30.20S
DETROIT CITY   SUNNY     63  30  28 N13G22    30.19R
6HR MIN TEMP:  51; 6HR MAX TEMP:  63;

DETROIT        SUNNY     65  33  30 NW15G23   30.20R
6HR MIN TEMP:  53; 6HR MAX TEMP:  66;

FLINT          SUNNY     63  30  28 NW12      30.20S
6HR MIN TEMP:  49; 6HR MAX TEMP:  63;

GROSSE ILE     SUNNY     64  23  20 NW15      30.18R
HILLSDALE      SUNNY     65  30  27 NW13      30.21R
6HR MIN TEMP:  51; 6HR MAX TEMP:  65;

HOWELL         SUNNY     62  29  28 N8        30.21R
6HR MIN TEMP:  49; 6HR MAX TEMP:  62;


CITY           SKY/WX    TMP DP  RH WIND       PRES   REMARKS
JACKSON        SUNNY     63  32  31 N10G17    30.21R
6HR MIN TEMP:  50; 6HR MAX TEMP:  63;

LAMBERTVILLE   SUNNY     66  30  26 N9        30.20S
LANSING        SUNNY     62  31  31 NW5       30.22R
6HR MIN TEMP:  49; 6HR MAX TEMP:  62;

LAPEER         FAIR      59  26  29 N9G18     30.20S
MASON          SUNNY     60  32  34 NW7       30.22R
MT. CLEMENS    MOSUNNY   61  35  37 N12G23    30.17R
6HR MIN TEMP:  50; 6HR MAX TEMP:  61;

PONTIAC        MOSUNNY   60  31  33 NW16G23   30.19R
6HR MIN TEMP:  48; 6HR MAX TEMP:  61;

PORT HOPE        N/A     46  34  62 NE7       30.22R
6HR MIN TEMP:  44; 6HR MAX TEMP:  50;

PORT HURON     SUNNY     54  36  50 NE13      30.22R
TRI CITIES     SUNNY     63  26  24 NW15G22   30.20S
6HR MIN TEMP:  46; 6HR MAX TEMP:  63;

MIDLAND        FAIR      63  25  23 N8G22     30.19S
TROY           SUNNY     63  30  28 NW13G22   30.21R
SAGINAW HB     SUNNY     63  23  22 W13G25    30.19S
$$
MIZ043>046-050>051-056>058-064>065-071>073-077>080-221900-
SOUTHWEST LOWER MICHIGAN

CITY           SKY/WX    TMP DP  RH WIND       PRES   REMARKS
BATTLE CREEK   SUNNY     66  32  28 N15G22    30.22R
6HR MIN TEMP:  50; 6HR MAX TEMP:  66;

BENTON HARBOR  SUNNY     58  34  40 VRB7      30.25R
6HR MIN TEMP:  49; 6HR MAX TEMP:  62;

BIG RAPIDS     SUNNY     61  16  17 NW10G21   30.21R
6HR MIN TEMP:  42; 6HR MAX TEMP:  61;

COLDWATER      SUNNY     64  31  29 NW8       30.22R
6HR MIN TEMP:  49; 6HR MAX TEMP:  64;

FREMONT        FAIR      63  24  23 N10G20    30.22R
HOLLAND        SUNNY     62  34  35 W12       30.25R
6HR MIN TEMP:  51; 6HR MAX TEMP:  64;

GRAND RAPIDS   SUNNY     65  31  28 NW15      30.22R
6HR MIN TEMP:  50; 6HR MAX TEMP:  65;

IONIA          FAIR      65  30  27 NW13G23   30.21S
KALAMAZOO      SUNNY     66  32  28 W8G17     30.23R
6HR MIN TEMP:  52; 6HR MAX TEMP:  67;

LUDINGTON      SUNNY     61  20  20 NW12      30.26R
6HR MIN TEMP:  43; 6HR MAX TEMP:  61;

MARSHALL       SUNNY     65  32  29 N3        30.21S
MOUNT PLEASANT SUNNY     63  26  25 W9G16     30.20S
6HR MIN TEMP:  45; 6HR MAX TEMP:  63;

MUSKEGON       SUNNY     60  26  27 W16       30.25R
6HR MIN TEMP:  50; 6HR MAX TEMP:  62;

SOUTH HAVEN    SUNNY     59  32  36 NW7       30.25R
$$
MIZ016>042-221900-
NORTHERN LOWER MICHIGAN

CITY           SKY/WX    TMP DP  RH WIND       PRES   REMARKS
ALPENA         SUNNY     55  23  28 N18G30    30.21S
6HR MIN TEMP:  42; 6HR MAX TEMP:  56;

BEAVER ISLAND  SUNNY     52  22  31 W5        30.25S
6HR MIN TEMP:  42; 6HR MAX TEMP:  52;

BELLAIRE       SUNNY     56  23  27 NW10G16   30.25R
6HR MIN TEMP:  36; 6HR MAX TEMP:  56;

CADILLAC       SUNNY     60  25  25 W10G20    30.20S
CHARLEVOIX     SUNNY     48  25  40 N8        30.30R
6HR MIN TEMP:  42; 6HR MAX TEMP:  48;

FRANKFORT      SUNNY     59  11  15 NW7       30.26R
GAYLORD        SUNNY     52  15  23 N9G22     30.22R
6HR MIN TEMP:  41; 6HR MAX TEMP:  53;

GRAYLING       SUNNY     55  18  22 NW10G20   30.21S
HARBOR SPRINGS SUNNY     53  21  29 N9G21     30.25R
HOUGHTON LAKE  SUNNY     58  21  24 W15G25    30.21R
6HR MIN TEMP:  43; 6HR MAX TEMP:  59;

MANISTEE       SUNNY     55  19  24 NW10G17   30.27R
OSCODA         SUNNY     51  32  48 E10       30.20R
PELLSTON       SUNNY     53  20  27 N12G24    30.25R
6HR MIN TEMP:  40; 6HR MAX TEMP:  54;

ROGERS CITY    SUNNY     51  24  34 N18G24    30.24S
TRAVERSE CITY  SUNNY     53  30  41 N10       30.25R
6HR MIN TEMP:  41; 6HR MAX TEMP:  55;

$$
MIZ007>008-015-221900-
EASTERN UPPER MICHIGAN

CITY           SKY/WX    TMP DP  RH WIND       PRES   REMARKS
KINROSS        SUNNY     46  19  34 NW16G24   30.23R
6HR MIN TEMP:  37; 6HR MAX TEMP:  46;

MACKINAC ISLAN SUNNY     52  24  34 NW10G18   30.22S
6HR MIN TEMP:  40; 6HR MAX TEMP:  53;

NEWBERRY       SUNNY     49  22  33 N14G26    30.24S
6HR MIN TEMP:  36; 6HR MAX TEMP:  51;

S. S. MARIE    SUNNY     45  22  40 NW17G25   30.24R
6HR MIN TEMP:  38; 6HR MAX TEMP:  45;

MUNISING         N/A     45  29  53 NE14      30.26F
6HR MIN TEMP:  36; 6HR MAX TEMP:  47;

$$
MIZ004>006-011>014-085-221900-
CENTRAL UPPER MICHIGAN

CITY           SKY/WX    TMP DP  RH WIND       PRES   REMARKS
MANISTIQUE     SUNNY     51  28  42 S13       30.23S
ESCANABA       SUNNY     52  32  46 S13       30.24R
6HR MIN TEMP:  39; 6HR MAX TEMP:  52;

MENOMINEE      SUNNY     55  27  33 SE10      30.23F
6HR MIN TEMP:  39; 6HR MAX TEMP:  55;

SAWYER-GWINN   SUNNY     54  25  32 N15G21    30.22S
$$
MIZ001>003-009>011-084-221900-
WESTERN UPPER MICHIGAN

CITY           SKY/WX    TMP DP  RH WIND       PRES   REMARKS
IRON MOUNTAIN  SUNNY     63  21  20 CALM      30.19F
6HR MIN TEMP:  37; 6HR MAX TEMP:  63;

HOUGHTON       SUNNY     57  19  22 VRB6      30.22S
6HR MIN TEMP:  39; 6HR MAX TEMP:  57;

COPPER HARBOR    N/A     51  26  37 VRB5      30.24S
6HR MIN TEMP:  40; 6HR MAX TEMP:  51;

IRONWOOD       SUNNY     59  27  29 W10       30.20S
6HR MIN TEMP:  37; 6HR MAX TEMP:  59;

$$

ABBREVIATIONS USED IN REMARKS
   TC - TEMPERATURE IN CELSIUS
  WCI - WIND CHILL INDEX
   HX - HEAT INDEX
  VSB - VISIBILITY




USA.gov is the U.S. government's official web portal to all federal, state and local government web resources and services.